This demonstration page uses our WeatherBlox Daily Observations layout. Learn more.

Left ArrowRight Arrow

Hourly Observations for September 8, 2020

Temp ( °F °C ) Dew Point ( °F °C ) Humidity (%) Winds ( mph kmh ) Pressure ( in mb ) Visibility ( mi km ) Precip ( " mm )
12:52 am 00:52 Cloudy with Thunderstorms 53 11.7 47 8.3 80 80 N 13 20 30.01 1016 10 16 0.00 0.00
1:24 am 01:24 Cloudy 53 11.7 46 7.8 77 77 N 14 22 30.03 1017 10 16 0.00 0.00
1:52 am 01:52 Cloudy 53 11.7 45 7.2 74 74 NNE 20 31 30.01 1016 10 16 0.00 0.00
2:52 am 02:52 Cloudy 53 11.7 44 6.7 72 72 NNE 13 20 30.01 1016 10 16 0.00 0.00
3:52 am 03:52 Cloudy 52 11.1 45 7.2 77 77 NNE 17 28 30.05 1018 10 16 0.00 0.00
4:34 am 04:34 Cloudy with Light Rain 51 10.6 46 7.8 83 83 N 13 20 30.13 1020 10 16 0.00 0.00
4:52 am 04:52 Cloudy with Light Rain 51 10.6 46 7.8 83 83 N 17 28 30.11 1020 10 16 0.00 0.00
5:09 am 05:09 Cloudy 51 10.6 46 7.8 83 83 N 18 30 30.11 1020 10 16 0.00 0.00
5:52 am 05:52 Cloudy 51 10.6 45 7.2 80 80 NNE 21 33 30.07 1018 10 16 0.00 0.00
6:52 am 06:52 Cloudy 51 10.6 44 6.7 77 77 N 16 26 30.12 1020 10 16 0.00 0.00
7:52 am 07:52 Cloudy 50 10 44 6.7 80 80 NNE 21 33 30.12 1020 10 16 0.00 0.00
8:52 am 08:52 Cloudy 50 10 45 7.2 83 83 NNE 21 33 30.14 1021 10 16 0.00 0.00
9:52 am 09:52 Cloudy 51 10.6 45 7.2 80 80 NNE 20 31 30.16 1021 10 16 0.00 0.00
10:23 am 10:23 Cloudy with Nearby Thunderstorms 50 10 46 7.8 86 86 N 20 31 30.18 1022 10 16 0.00 0.00
10:31 am 10:31 Cloudy with Thunderstorms 50 10 46 7.8 86 86 NNE 18 30 30.17 1022 10 16 0.00 0.00
10:52 am 10:52 Cloudy with Light Rain 50 10 46 7.8 86 86 N 25 41 30.19 1022 10 16 0.00 0.00
11:05 am 11:05 Cloudy with Light Rain 50 10 46 7.8 86 86 NNE 22 35 30.17 1022 10 16 0.00 0.00
11:40 am 11:40 Cloudy 49 9.4 46 7.8 90 90 N 21 33 30.21 1023 10 16 0.00 0.00
11:52 am 11:52 Cloudy 50 10 46 7.8 86 86 NNE 20 31 30.19 1023 10 16 0.00 0.00
12:09 pm 12:09 Cloudy with Thunderstorms 49 9.4 45 7.2 86 86 N 18 30 30.23 1024 10 16 0.00 0.00
12:27 pm 12:27 Cloudy with Strong Thunderstorms 47 8.3 45 7.2 93 93 N 22 35 30.24 1024 2 3 0.00 0.00
12:39 pm 12:39 Cloudy with Strong Thunderstorms 46 7.8 45 7.2 96 96 N 22 35 30.23 1024 2 3 0.14 3.56
12:52 pm 12:52 Cloudy with Strong Thunderstorms 46 7.8 44 6.7 93 93 N 17 28 30.24 1024 2 3 0.23 5.84
12:59 pm 12:59 Cloudy with Thunderstorms 46 7.8 44 6.7 93 93 NNE 21 33 30.24 1024 2 3 0.02 0.51
1:24 pm 13:24 Cloudy with Thunderstorms 46 7.8 44 6.7 93 93 N 17 28 30.22 1023 6 10 0.07 1.78
1:47 pm 13:47 Cloudy with Nearby Thunderstorms 46 8 45 7 93 93 N 17 28 30.24 1024 10 16 0.08 2.03
1:52 pm 13:52 Cloudy with Nearby Thunderstorms 46 7.8 43 6.1 89 89 N 23 37 30.23 1024 10 16 0.10 2.54
2:05 pm 14:05 Cloudy with Rain 46 7.8 43 6.1 89 89 N 20 31 30.24 1024 10 16 0.01 0.25
2:15 pm 14:15 Cloudy with Nearby Thunderstorms 46 7.8 44 6.7 93 93 N 22 35 30.25 1024 7 11 0.02 0.51
2:44 pm 14:44 Cloudy with Thunderstorms 46 7.8 44 6.7 93 93 N 15 24 30.26 1025 8 13 0.09 2.29
2:52 pm 14:52 Cloudy with Thunderstorms 46 7.8 44 6.7 93 93 N 14 22 30.26 1025 10 16 0.09 2.29
2:57 pm 14:57 Cloudy with Thunderstorms 46 7.8 44 6.7 93 93 N 17 28 30.27 1025 10 16 0.00 0.00
3:52 pm 15:52 Cloudy with Rain 46 7.8 43 6.1 89 89 N 18 30 30.22 1023 5 8 0.09 2.29
4:26 pm 16:26 Cloudy with Light Rain 46 7.8 44 6.7 93 93 N 18 30 30.26 1025 6 10 0.06 1.52
4:29 pm 16:29 Cloudy with Nearby Thunderstorms 46 7.8 44 6.7 93 93 N 18 30 30.26 1025 5 8 0.06 1.52
4:35 pm 16:35 Cloudy with Thunderstorms 46 7.8 44 6.7 93 93 N 15 24 30.27 1025 5 8 0.06 1.52
4:50 pm 16:50 Cloudy with Strong Thunderstorms 46 8 45 7 93 93 N 21 33 30.26 1025 3 5 0.09 2.29
4:52 pm 16:52 Cloudy with Strong Thunderstorms 46 7.8 44 6.7 93 93 N 18 30 30.24 1024 3 5 0.11 2.79
5:02 pm 17:02 Cloudy with Thunderstorms 46 7.8 45 7.2 96 96 N 16 26 30.27 1025 5 8 0.05 1.27
5:15 pm 17:15 Cloudy with Thunderstorms 46 7.8 45 7.2 96 96 N 15 24 30.25 1024 3 5 0.13 3.30
5:22 pm 17:22 Cloudy with Light Rain 46 7.8 45 7.2 96 96 N 14 22 30.27 1025 5 8 0.14 3.56
5:33 pm 17:33 Cloudy with Light Rain 46 7.8 45 7.2 96 96 NNW 14 22 30.28 1025 5 8 0.15 3.81
5:52 pm 17:52 Cloudy with Light Rain 47 8.3 45 7.2 93 93 N 16 26 30.27 1025 5 8 0.15 3.81
6:52 pm 18:52 Cloudy with Light Rain 47 8.3 45 7.2 93 93 N 17 28 30.27 1025 6 10 0.11 2.79
7:52 pm 19:52 Cloudy 47 8.3 44 6.7 90 90 N 17 28 30.27 1025 10 16 0.01 0.25
8:52 pm 20:52 Cloudy with Light Rain 46 7.8 44 6.7 93 93 N 16 26 30.31 1026 4 6 0.00 0.00
9:52 pm 21:52 Cloudy with Drizzle 45 7.2 43 6.1 93 93 N 16 26 30.31 1027 5 8 0.00 0.00
10:32 pm 22:32 Cloudy with Light Rain 44 6.7 42 5.6 93 93 N 16 26 30.32 1027 7 11 0.00 0.00
10:52 pm 22:52 Cloudy with Light Rain 44 6.7 42 5.6 93 93 N 15 24 30.31 1027 7 11 0.00 0.00
11:52 pm 23:52 Cloudy with Light Rain 44 6.7 42 5.6 93 93 N 13 20 30.32 1027 7 11 0.00 0.00

Powered by AerisWeather